Regional Weather Roundup
Issued by NWS

Home | Current Version | Previous Version | Graphics & Text | Print | Product List | Glossary On
Versions: 1 2 3 4 5 6 7 8 9 10 11 12 13 14 15 16 17 18 19 20 21 22 23 24 25 26 27
000
ASUS45 KTFX 230310
RWRMT
MONTANA REGIONAL WEATHER ROUNDUP
NATIONAL WEATHER SERVICE GREAT FALLS MT
900 PM MDT SAT APR 22 2017

NOTE: "FAIR" INDICATES FEW OR NO CLOUDS BELOW 12000 FEET WITH NO
SIGNIFICANT WEATHER AND/OR OBSTRUCTIONS TO VISIBILITY.

MTZ001>007-043-230400-
WEST OF THE DIVIDE

CITY           SKY/WX    TMP DP  RH WIND       PRES   REMARKS
KALISPELL      MOCLDY    52  36  54 NW3       29.86F
MISSOULA       CLOUDY    58  35  42 N3        29.87S
BUTTE          CLOUDY    52  26  36 SW3       29.93S
MULLAN PASS    CLOUDY    42  29  59 VRB7      29.94R
ANACONDA         N/A     54  21  28 S5        29.91R
DEER LODGE       N/A     54  30  40 CALM      29.92R
EUREKA           N/A     57  34  41 SE3       29.86S
HAMILTON         N/A     57  34  41 E5        29.87S
LIBBY            N/A     55  37  50 CALM      29.86R
RONAN            N/A     55  39  54 N2        29.93F
$$

MTZ008-052>055-230400-
SOUTHWEST MONTANA

CITY           SKY/WX    TMP DP  RH WIND       PRES   REMARKS
BOZEMAN        CLOUDY    49  38  65 SE13      29.91S
DILLON         CLOUDY    51  28  41 W6        29.94R
W YELLOWSTONE  CLOUDY    39  27  60 SE5       30.07S
ENNIS          CLEAR     50  25  37 S14       30.02S
THREE FORKS      N/A     57  57 100 S20       29.91S
$$

MTZ009-010-012-014-046-048-049-054-230400-
EAST SLOPES AND CENTRAL MONTANA

CITY           SKY/WX    TMP DP  RH WIND       PRES   REMARKS
CUT BANK       CLOUDY    50  37  61 E8        29.89S
GREAT FALLS    PTCLDY    52  38  58 NE8       29.88S
MALMSTROM AFB  MOCLDY    51  41  67 NE7       29.87F
HELENA         PTCLDY    54  37  52 W9        29.86S
AUGUSTA        MOCLDY    52  33  48 S5        29.89S
BOWMANS CRNR   MOCLDY    52  31  44 CALM      29.87R
CHOTEAU          N/A     52  36  54 E3        29.90S
FAIRFIELD      MOCLDY    52  38  58 E8        29.87S
POWER          MOCLDY    49  39  66 NE7       29.88S
RAYNESFORD     MOCLDY    51  34  53 CALM      29.89S
ULM            CLOUDY    54  37  53 NE9       29.87S
$$

MTZ011-013-016-021-045-047-050-051-230400-
NORTH CENTRAL MONTANA

CITY           SKY/WX    TMP DP  RH WIND       PRES   REMARKS
HAVRE          PTCLDY    49  40  71 E22       29.95S
LEWISTOWN      PTCLDY    48  35  60 E6        29.91F
N BAR RANCH      N/A     46  36  66 SE3       29.98S
CHINOOK          N/A     48  39  71 E8        29.98R
DENTON           N/A     49  36  58 MISG      29.87S
FORT BENTON      N/A     54  39  58 N6        29.89S
GEYSER         MOCLDY    49  36  61 CALM      29.88S
GRASS RANGE      N/A     51  36  55 S13G21    29.90S
JUDITH GAP     MOCLDY    47  36  64 SE10      29.93F
STANFORD         N/A     48  37  65 SW13      29.91R
WINIFRED         N/A     46  37  71 SE10      29.90S
$$

MTZ017>020-022>027-061-062-230400-
NORTHEAST MONTANA

CITY           SKY/WX    TMP DP  RH WIND       PRES   REMARKS
GLASGOW        CLOUDY    47  40  76 E18       30.03R
JORDAN           N/A     52  42  69 E6        29.97F
SIDNEY         CLOUDY    44  36  73 NE13      30.09R
WOLF POINT     CLOUDY    47  39  74 E16       30.06R
MALTA          CLOUDY    48  41  76 NE10      30.00S
PLENTYWOOD       N/A     37  37 100 E20G25    30.11S WCI  27
POPLAR           N/A     45  37  76 NE16      30.07R
$$

MTZ028>42-056>058-230400-
SOUTHCENTRAL AND SOUTHEAST MONTANA

CITY           SKY/WX    TMP DP  RH WIND       PRES   REMARKS
BAKER          CLOUDY    52  43  71 CALM      30.03F
BILLINGS       MOCLDY    56  37  49 SE7       29.93S
LIVINGSTON     CLOUDY    54  31  41 MISG      29.92R
MILES CITY     CLEAR     53  40  61 E6        29.98F
BIG TIMBER     CLEAR     50  39  66 SE6       29.95R
LAUREL           N/A     50  35  56 CALM      29.93S
ROUNDUP          N/A     53  36  52 E3        29.87S
$$

REGIONAL REPORTS...DAKOTAS

CITY           SKY/WX    TMP DP  RH WIND       PRES   REMARKS
WILLISTON      CLOUDY    40  33  76 E12       30.15R
MINOT          CLOUDY    35  30  82 NE16      30.20R WCI  25
DICKINSON      CLOUDY    43  38  82 NE18      30.06R
BEACH          CLOUDY    50  43  76 E9        30.07S
TIOGA          CLOUDY    36  36 100 E17       30.16S WCI  25
WATFORD CITY   MOCLDY    39  34  81 E21       30.12R WCI  29
BISMARCK       MOCLDY    43  36  76 NE23      30.11R
GRAND FORKS    FLURRIES  34  31  88 NE13G25   30.23R WCI  25
FARGO          CLOUDY    40  34  79 N23G36    30.13R
BUFFALO SD       N/A     57  40  52 SE5       29.97S
RAPID CITY     CLOUDY    48  33  56 S5        30.04S
$$

REGIONAL REPORTS...WYOMING/IDAHO/WASHINGTON

CITY           SKY/WX    TMP DP  RH WIND       PRES   REMARKS
GILLETTE         N/A     48  36  63 S13       30.00F
SHERIDAN       CLOUDY    47  40  76 W6        29.96S
BUFFALO WY     CLOUDY    46  36  68 W3        29.99F
CODY           CLOUDY    48  37  65 CALM      30.00R
YELLOWSTONE LA   N/A     36  25  64 VRB5      30.11S
IDAHO FALLS    CLOUDY    50  31  48 SW8       30.03R
SALMON         CLOUDY    57  27  30 S5        29.90R
BOISE          CLOUDY    62  34  35 SE8       29.84S
SPOKANE        MOCLDY    55  38  52 SW12      29.89S
$$

REGIONAL REPORTS...ALBERTA

CITY           SKY/WX    TMP DP  RH WIND       PRES   REMARKS
EDMONTON       CLOUDY    34  21  60 E13       30.16S WCI  25
CALGARY        LGT RAIN  39  36  87 E14G23    29.96R WCI  31
LETHBRIDGE     CLOUDY    50  39  66 E12G18    29.91R
MEDICINE HAT   CLOUDY    48  37  66 E15       29.98S
WATERTON GATE    N/A     48  25  40 SW6         N/A
CARDSTON         N/A     50  30  46 SW6         N/A
MILK RIVER       N/A     48  39  71 E13         N/A
ONEFOUR          N/A     45  37  76 E14         N/A
$$

REGIONAL REPORTS...SASKATCHEWAN

CITY           SKY/WX    TMP DP  RH WIND       PRES   REMARKS
SWIFT CURRENT  CLOUDY    41  34  75 E18       30.08S
REGINA         CLOUDY    39  28  65 E12G20    30.18R WCI  32
SASKATOON      MOCLDY    36  25  64 E10       30.24R WCI  28
CYPRESS HILLS    N/A     39  34  81 E6          N/A
VAL MARIE        N/A     43  37  81 E14         N/A
ROCKGLEN         N/A     37  36  93 E5          N/A
$$




USA.gov is the U.S. government's official web portal to all federal, state and local government web resources and services.